Simultaneous Nadir Overpasses (SNOs) Predictions

Prediction of SNOs between AQUA and GOES-15 Satellite Orbit:

Table of predicted SNOs for the next 14.0 days since TLE Epoch: 8/7/2015
Index Date Time (AQUA) AQUA Lat,Lon GOES-15 Lat,Lon Distance(km) Time Diff (sec)
1 08/07/2015 22:41:23 -0.02,-136.42 0.26,-134.99 161.45 80
2 08/09/2015 22:29:12 0.57,-133.45 0.26,-134.95 169.62 80
3 08/10/2015 10:50:26 0.53,-138.61 -0.27,-134.91 421.20 80
4 08/12/2015 10:38:15 -0.14,-135.66 -0.28,-134.86 90.50 80
5 08/14/2015 10:26:03 -0.75,-132.70 -0.28,-134.81 240.11 80
6 08/14/2015 22:47:27 -0.37,-137.89 0.29,-134.83 348.98 80
7 08/16/2015 22:35:15 0.26,-134.94 0.29,-134.77 18.67 80
8 08/18/2015 22:23:02 0.85,-131.97 0.29,-134.71 311.26 80
9 08/19/2015 10:44:18 0.19,-137.14 -0.30,-134.67 280.16 80
10 08/21/2015 10:32:05 -0.40,-134.17 -0.30,-134.60 49.03 80




NCC Satellite Simultaneous Nadir Overpasses (SNOs) Prediction Service
